DW9004 Weather Reports


time (UTC)temp
F
wind
direction
speed
knots
gust
knots
rain 1hr
in
rain 24hr
in
rain mn
in
humidity
%
barometer
mb
20260505230021 84 88 3.5 7.8 0.00 0.00 0.00 28 1005.3
20260505224504 84 107 3.5 6.1 0.00 0.00 0.00 27 1005.6
20260505223002 84 101 2.6 7.8 0.00 0.00 0.00 27 1005.8
20260505221502 84 93 1.7 8.7 0.00 0.00 0.00 27 1005.8
20260505220002 83 82 4.3 8.7 0.00 0.00 0.00 28 1005.9
20260505214605 84 76 3.5 9.6 0.00 0.00 0.00 28 1005.9
20260505213052 84 96 2.6 7.0 0.00 0.00 0.00 29 1006.0
20260505211547 83 29 2.6 8.7 0.00 0.00 0.00 28 1006.1
20260505204530 82 36 2.6 8.7 0.00 0.00 0.00 31 1006.3
20260505203029 81 52 4.3 12.2 0.00 0.00 0.00 29 1006.5
20260505201527 81 9 3.5 12.2 0.00 0.00 0.00 30 1006.5
20260505200028 80 13 6.1 12.2 0.00 0.00 0.00 33 1006.6
20260505194526 80 16 7.8 13.9 0.00 0.00 0.00 33 1006.6
20260505193025 80 41 5.2 13.0 0.00 0.00 0.00 33 1006.7
20260505191525 78 9 8.7 11.3 0.00 0.00 0.00 36 1006.7
20260505190013 79 29 5.2 13.0 0.00 0.00 0.00 35 1006.8
20260505184513 78 45 4.3 12.2 0.00 0.00 0.00 38 1006.9
20260505183012 77 37 7.8 13.9 0.00 0.00 0.00 36 1007.0
20260505181511 77 26 5.2 13.9 0.00 0.00 0.00 36 1007.0
20260505180030 76 35 5.2 15.6 0.00 0.00 0.00 38 1007.0
20260505174511 75 67 7.8 11.3 0.00 0.00 0.00 38 1007.0
20260505173009 74 31 3.5 13.0 0.00 0.00 0.00 38 1007.1
20260505171509 75 346 4.3 12.2 0.00 0.00 0.00 40 1007.0
20260505170055 74 350 0.9 4.3 0.00 0.00 0.00 40 1006.9
20260505164555 72 95 0.9 7.0 0.00 0.00 0.00 44 1006.9
20260505163054 70 142 5.2 10.4 0.00 0.00 0.00 44 1007.0
20260505161556 70 137 5.2 10.4 0.00 0.00 0.00 46 1006.9
20260505153051 67 122 4.3 9.6 0.00 0.00 0.00 51 1006.7
20260505151549 66 104 6.1 9.6 0.00 0.00 0.00 53 1006.6
20260505124512 58 15 0.9 6.1 0.00 0.00 0.00 65 1004.8
20260505123022 56 140 1.7 6.1 0.00 0.00 0.00 69 1004.7
20260505121506 56 141 0.0 0.0 0.00 0.00 0.00 68 1004.6
20260505120005 57 121 0.0 0.0 0.00 0.00 0.00 65 1004.5
20260505114601 58 106 0.0 0.0 0.00 0.00 0.00 65 1004.3
20260505113056 59 106 0.0 0.0 0.00 0.00 0.00 63 1004.2
20260505111552 60 352 0.0 0.0 0.00 0.00 0.00 62 1004.0
20260505101549 61 352 0.0 0.0 0.00 0.00 0.00 59 1003.1
20260505100052 61 2 0.0 0.0 0.00 0.00 0.00 60 1002.9
20260505094530 62 26 0.0 0.0 0.00 0.00 0.00 56 1002.9
20260505093029 63 27 0.0 0.0 0.00 0.00 0.00 54 1002.9
20260505091521 63 27 0.0 1.7 0.00 0.00 0.00 57 1002.6
20260505090020 63 27 0.0 1.7 0.00 0.00 0.00 58 1002.4
20260505084520 63 126 0.0 0.9 0.00 0.00 0.00 57 1002.3
20260505083006 63 26 0.0 0.9 0.00 0.00 0.00 58 1002.3
20260505081505 63 90 0.0 0.9 0.00 0.00 0.00 57 1002.3
20260505080004 63 33 0.0 0.0 0.00 0.00 0.00 56 1002.4
20260505074600 64 33 0.0 0.0 0.00 0.00 0.00 55 1002.5
20260505071556 67 22 0.0 0.9 0.00 0.00 0.00 50 1001.8
20260505070058 67 243 0.0 0.0 0.00 0.00 0.00 48 1001.6
20260505064551 68 243 0.0 0.0 0.00 0.00 0.00 46 1001.7
20260505063046 68 190 0.0 0.9 0.00 0.00 0.00 46 1001.5
20260505061540 67 208 0.0 0.0 0.00 0.00 0.00 46 1001.3
20260505060035 66 210 0.0 0.0 0.00 0.00 0.00 48 1001.3
20260505054543 66 85 0.0 2.6 0.00 0.00 0.00 48 1001.3
20260505053039 66 17 0.0 0.0 0.00 0.00 0.00 46 1001.2
20260505051539 66 17 0.0 0.0 0.00 0.00 0.00 46 1001.1
20260505041509 68 308 0.0 0.0 0.00 0.00 0.00 45 1000.7
20260505040051 69 308 0.0 0.0 0.00 0.00 0.00 44 1000.7
20260505034550 70 308 0.0 0.0 0.00 0.00 0.00 43 1000.5
20260505033045 71 308 0.0 0.0 0.00 0.00 0.00 44 1000.4
20260505031548 72 308 0.0 0.0 0.00 0.00 0.00 46 1000.3
20260505030037 75 308 0.0 0.9 0.00 0.00 0.00 44 1000.1
20260505024533 78 117 0.0 0.0 0.00 0.00 0.00 32 999.9
20260505023028 80 117 0.0 0.0 0.00 0.00 0.00 28 999.9
20260505021529 81 117 0.0 0.9 0.00 0.00 0.00 28 1000.0
20260505020011 83 94 0.0 1.7 0.00 0.00 0.00 26 1000.0
20260505014509 83 128 0.0 4.3 0.00 0.00 0.00 26 1000.0
20260505013005 84 114 2.6 4.3 0.00 0.00 0.00 25 1000.1
20260505011503 85 85 3.5 6.1 0.00 0.00 0.00 23 1000.3
20260505010117 86 119 1.7 4.3 0.00 0.00 0.00 23 1000.4
20260505004558 87 107 1.7 3.5 0.00 0.00 0.00 22 1000.4
20260505003059 87 88 1.7 6.1 0.00 0.00 0.00 22 1000.5
20260505001557 87 102 2.6 7.8 0.00 0.00 0.00 22 1000.5
20260505000054 88 12 1.7 6.1 0.00 0.00 0.00 21 1000.5
20260504234543 89 301 0.9 3.5 0.00 0.00 0.00 20 1000.4
20260504233041 88 343 0.0 9.6 0.00 0.00 0.00 21 1000.6
20260504231545 88 45 0.0 3.5 0.00 0.00 0.00 21 1000.7